STARLINK-34242, 64727

Orbit data source: Space-Track

STARLINK-34242, 64727 is a payload satellite owned by SpaceX/Seattle (US) in LEO that was launched on Wed, 02 Jul 2025 UTC via an FALCON 9 launch vehicle from the Air Force Eastern Test Range (AFETR). Payload-class satellites include a variety of spacecraft equipped with specific instruments for various scientific and technological missions. These include communications satellites like Starlink; space stations such as the ISS; scientific satellites like the Hubble; Earth observation satellites from companies like Planet Labs, Umbra, and HawkEye 360; GPS; miniature CubeSats for education and research; and military/defense satellites.

Loading next visibility...
Identifier
64727, 2025-144D
Orbit
LEO
Last TLE update
4 hours ago
Origin
Manufacturer
SpaceX/Seattle
Mission
Operational spacecraft
Bus & Motor
STARLINK V2MO, Unknown motor
Mass
575 kg wet, ~530 kg dry
Launch date (UTC)
2025-07-02 (1 week ago)
Launch vehicle
FALCON 9
Launch site
Air Force Eastern Test Range (AFETR)
Object type
Payload
Rocket body
Debris
Shape & HBR
Unknown
Radar Cross Section
RCS unknown

Expand to show TLE details & history

TLE from 4 hours ago
0 STARLINK-34242
1 64727U 25144D   25192.25002315 -.01126413  00000-0 -50119-2 0  9997
2 64727  53.1540 228.8220 0000897  87.8188  77.1926 15.86300023  2657
Epoch: 2025-07-11T06:00Z
TLE epoch observation values (Epoch: 2025-07-11T06:00:02Z)
Latitude
11.931°
Longitude
20.35058°
Altitude
312.686 km
Speed
7.723 km/s
True Right ascension
02h 39m 03s
True Declination
11° 51' 25"
Sunlit
Object was in daylight at epoch
Visualization orbit readout
Latitude
-50.78841°
Longitude
142.70898°
Altitude
331.754 km
Speed
7.709 km/s
Apparent Right ascension
10h 16m 52s
Apparent Declination
-45° 32' 30"
Sunlit
Object is in daylight
Visualization observer readout
Local Sidereal Time
21:49:28
Azimuth
219.531° SW
Elevation
-82.458°
Doppler factor
1
Orbital elements
Apogee altitude
313.53 km
Perigee altitude
312.33 km
Semi-major axis
6,691.067 km
Eccentricity
0.00009
Inclination
53.154°
RAAN
228.822°
Arg. of periapsis
87.8188°
True anomaly
Unknown
Mean anomaly
77.1926°
Eccentric anomaly
Unknown
Mean motion
3.96552 °/min
Orbital period
90.78 mins
BSTAR
-0.0050119
Loading maneuver chart data...
Loading SW <> Apogee altitude chart data...
Loading historical data...
Loading historical data...
Loading historical data...
Loading historical data...
Loading historical data...
Loading historical data...
Loading historical data...

STARLINK-34242 Visibility forecast

Observer location: undefined°, undefined°

Span
Click to sort rows by Start time (UTC) header in descending order
Start Az.
Max El. time (UTC)
Max El. Az.
Max El.
End time (UTC)
End Az.
4 mins2025-07-11 11:50:44.921Z330.123° NNW2025-07-11 11:52:44.921Z60.627° ENE32.519°2025-07-11 11:54:44.921Z108.948° ESE
|